EHI
83 85 90 80 47 12 0 0 0 0 0 0 0 0 0 0 0 0 0 6 13 9 2 1 1 0 0 0 0 0 0 0 0 0 0 0 0 0 0 0 0 0 0 0 0 0 0 0 0
82 87 87 66 29 5 0 0 0 0 0 0 0 0 0 0 0 0 0 4 7 5 3 3 2 0 0 0 0 0 0 0 0 0 0 0 0 0 0 0 0 0 0 0 0 0 0 0 0
84 84 74 42 12 0 0 0 0 0 0 0 0 0 0 0 0 0 0 1 2 5 9 9 4 0 0 0 0 0 0 0 0 0 0 0 0 0 0 0 0 0 0 0 0 0 0 0 0
78 68 44 18 3 0 0 0 0 0 0 0 0 0 0 0 0 0 0 0 2 11 19 14 5 1 0 0 0 0 0 0 0 0 0 0 0 0 0 0 0 0 0 0 0 0 0 0 0
53 36 15 4 1 1 0 0 0 1 1 1 0 0 0 1 1 1 0 0 4 16 25 18 9 5 1 0 0 0 0 0 0 0 0 0 0 0 0 0 0 0 0 0 0 0 0 0 0
19 10 2 1 2 3 1 1 2 3 4 4 2 1 0 1 2 2 1 1 4 17 27 23 13 8 3 2 1 0 0 0 0 0 0 0 0 0 0 0 0 0 0 0 0 0 0 0 0
4 2 0 2 4 5 4 5 6 8 10 11 8 3 0 1 2 2 2 2 3 13 22 20 13 9 5 3 4 2 1 1 0 0 0 0 0 0 0 0 0 0 0 0 0 0 0 0 0
1 0 0 2 5 6 7 9 12 15 18 21 20 12 7 7 7 6 7 7 6 8 12 12 11 7 3 4 7 6 4 2 1 0 0 0 0 0 1 0 0 0 0 0 0 0 0 0 0
0 0 2 5 9 11 14 15 16 19 22 25 25 21 16 15 13 11 12 14 13 11 8 8 9 6 4 5 9 8 5 3 1 0 0 0 0 0 0 2 4 3 0 0 0 0 0 0 0
1 2 5 10 14 17 19 17 15 16 18 18 19 18 16 14 11 10 11 14 15 13 10 8 7 6 5 6 9 9 7 5 2 0 1 1 1 0 0 5 10 7 1 0 0 0 0 0 0
4 7 11 14 16 17 15 11 10 9 9 9 9 9 8 8 7 6 6 8 10 10 8 7 6 4 4 6 10 12 11 8 4 1 2 2 1 0 0 5 11 7 2 0 0 0 0 0 0
7 13 16 16 16 13 7 3 3 3 3 3 3 3 4 5 4 3 3 4 5 5 5 4 3 2 2 6 11 15 14 10 5 2 2 3 2 1 0 3 4 3 1 0 0 0 0 0 0
6 10 13 13 11 8 3 0 0 1 1 1 1 1 1 2 1 1 1 2 3 4 3 3 2 1 2 5 8 9 9 8 5 3 2 3 3 1 1 1 0 0 0 0 0 0 0 0 0
2 3 4 4 4 2 1 0 0 0 0 0 0 0 0 0 0 0 0 0 1 2 2 2 1 0 1 2 2 2 3 5 5 4 2 1 2 2 1 0 0 0 0 0 0 0 0 0 0
0 0 0 0 0 0 0 0 0 0 0 0 0 0 0 0 0 0 0 0 0 0 0 0 0 0 0 0 0 0 1 3 4 4 2 0 1 1 1 1 1 0 0 0 0 0 0 0 0
0 0 0 0 0 0 0 0 0 0 0 0 0 0 0 0 0 0 0 0 0 0 0 0 0 0 0 0 0 0 1 3 4 4 3 1 0 1 3 3 2 0 0 0 0 0 0 0 0
0 0 0 0 0 0 0 0 0 0 0 0 0 0 0 0 0 0 0 0 0 0 0 0 0 0 0 0 0 0 1 2 3 4 4 3 2 3 6 7 4 1 1 0 0 0 0 0 0
0 0 0 0 0 0 0 0 0 0 0 0 0 0 0 0 0 0 0 0 0 0 0 0 0 0 0 0 0 0 1 2 2 3 4 4 4 6 9 8 4 3 2 1 0 0 0 0 0
0 0 0 0 0 0 0 0 0 0 0 0 0 0 0 0 0 0 0 0 0 0 0 0 0 0 0 0 0 1 1 2 2 2 3 4 5 7 8 8 5 4 3 2 1 0 0 0 0
0 0 0 0 0 0 0 0 0 0 0 0 0 0 0 0 0 0 0 0 0 0 0 0 0 0 0 0 1 1 1 1 2 2 3 5 5 5 7 9 7 5 4 3 2 1 0 0 0
0 0 0 0 0 0 0 0 0 0 0 0 0 0 0 0 0 0 0 0 0 0 0 0 0 0 0 0 0 0 0 0 2 3 4 5 5 5 7 9 8 6 6 5 3 2 0 0 0
0 0 0 0 0 0 0 0 0 0 0 0 0 0 0 0 0 0 0 0 0 0 0 0 0 0 0 0 0 0 0 1 2 3 3 3 4 5 7 7 5 5 6 6 4 2 0 0 0
0 0 0 0 0 0 0 0 0 0 0 0 0 0 0 0 0 0 0 0 0 0 0 0 0 0 0 0 0 0 0 1 2 2 2 2 3 5 6 5 4 3 3 3 3 2 1 0 0
0 0 0 0 0 0 0 0 0 0 0 0 0 0 0 0 0 0 0 0 0 0 0 0 0 0 0 0 0 0 0 0 1 1 1 1 2 4 4 3 3 1 0 1 2 2 1 0 0
0 0 0 0 0 0 0 0 0 0 0 0 0 0 0 0 0 0 0 0 0 0 0 0 0 0 0 0 0 0 0 0 0 0 0 0 1 3 2 1 1 1 0 0 1 2 1 0 0
0 0 0 0 0 0 0 0 0 0 0 0 0 0 0 0 0 0 0 0 0 0 0 0 0 0 0 0 0 0 0 0 0 0 0 0 1 3 2 1 1 1 0 0 1 1 1 0 0
0 0 0 0 0 0 0 0 0 0 0 0 0 0 0 0 0 0 0 0 0 0 0 0 0 0 0 0 0 0 0 0 0 0 0 0 1 1 1 1 1 1 0 0 0 0 0 0 0
0 0 0 0 0 0 0 0 0 0 0 0 0 0 0 0 0 0 0 0 0 0 0 0 0 0 0 0 0 0 0 0 0 0 0 0 0 0 0 0 0 0 0 0 0 0 0 0 0
0 0 0 0 0 0 0 0 0 0 0 0 0 0 0 0 0 0 0 0 0 0 0 0 0 0 0 0 0 0 0 0 0 0 0 0 0 0 0 0 0 0 0 0 0 0 0 0 0
0 0 0 0 0 0 0 0 0 0 0 0 0 0 0 0 0 0 0 0 0 0 0 0 0 0 0 0 0 0 0 0 0 0 0 0 0 0 0 0 0 0 0 0 0 0 0 0 0
Wind_Speed
9 9 7 3 3 2 10 9 11 10 11 10 10 10 17 14 10 8 4 11 17 16 14 12 12 11 10 9 9 8 8 7 7 6 6 5 5 5 4 3 2 2 2 2 2 2 3 3 3
10 7 4 2 0 7 8 8 10 12 11 11 14 16 17 15 13 9 6 13 16 15 13 12 13 11 10 9 9 8 8 7 7 7 6 6 5 4 4 3 2 2 2 2 2 2 2 2 2
11 7 4 2 5 8 8 7 8 12 13 13 16 16 12 10 12 9 10 13 15 13 12 14 12 11 9 8 8 7 7 7 7 6 6 5 5 4 4 3 2 2 1 1 2 2 2 2 2
6 4 3 1 10 9 8 7 8 12 15 17 14 12 13 12 12 12 11 13 14 13 13 12 12 10 9 8 7 7 7 6 6 6 6 5 5 5 4 3 3 2 1 1 2 2 2 1 1
4 2 3 4 9 10 10 11 11 12 15 16 18 16 14 14 13 12 9 12 12 13 13 12 11 10 8 7 7 7 7 6 6 6 6 5 5 5 4 4 3 2 2 1 1 2 2 2 2
3 1 2 3 8 10 10 11 12 14 14 15 15 16 13 12 10 8 7 7 9 12 14 13 12 10 9 8 7 7 7 7 7 6 6 6 6 6 5 5 4 3 2 2 2 2 2 3 2
3 1 1 6 7 8 9 11 13 13 15 15 11 13 9 11 7 6 5 5 6 8 12 12 11 11 11 10 9 9 8 8 8 7 7 7 7 7 7 6 6 5 4 3 3 3 3 3 3
3 2 2 4 6 7 10 13 14 15 14 14 14 10 7 8 7 7 7 6 5 5 5 7 9 10 10 10 12 12 11 10 9 9 9 9 8 8 9 8 8 7 6 5 5 5 5 5 5
3 3 4 2 5 7 9 12 13 14 15 16 16 14 10 12 12 11 10 9 9 9 6 5 3 2 5 8 11 11 11 11 10 9 10 9 6 7 8 11 11 9 8 7 6 6 6 6 7
1 3 4 6 9 10 13 13 7 11 15 13 13 13 12 12 11 11 10 10 9 9 9 8 8 5 2 1 4 6 6 6 7 6 7 6 6 6 8 10 13 12 10 9 8 8 8 7 5
6 6 7 8 10 11 11 13 15 10 11 10 10 11 10 11 11 10 9 8 8 8 9 9 8 7 6 4 1 1 1 3 5 6 6 6 6 4 5 5 8 8 9 6 7 7 6 7 6
8 10 9 9 10 10 10 9 12 14 8 7 8 9 10 11 9 8 7 6 6 6 7 8 8 7 6 5 3 1 0 1 2 4 5 5 4 4 4 5 6 7 5 6 6 6 9 10 9
9 9 12 14 16 17 17 15 12 10 6 5 6 7 8 9 8 6 6 5 4 4 4 4 5 6 6 5 4 3 1 2 2 2 4 6 5 5 5 4 5 7 7 7 5 7 8 8 7
10 10 10 10 11 11 14 12 8 7 5 5 5 6 7 6 7 7 7 7 6 5 3 2 3 3 4 4 3 4 3 2 2 2 4 5 4 5 4 3 3 4 4 6 5 6 5 3 2
9 9 9 8 10 12 10 11 8 5 4 5 6 6 6 6 6 8 9 8 8 7 6 4 3 2 3 3 4 3 3 4 3 2 4 4 4 5 5 4 3 3 3 4 5 6 4 3 2
10 10 6 3 3 6 2 7 7 3 3 4 5 5 4 5 8 8 9 10 9 8 7 6 6 4 4 3 3 3 4 4 3 3 3 4 4 5 4 4 3 3 2 2 3 2 2 2 2
8 5 5 4 2 3 7 7 5 3 4 5 6 6 6 7 9 10 10 10 10 9 8 7 6 5 5 3 3 3 4 4 4 3 3 4 5 4 4 4 3 3 2 2 2 2 2 2 2
7 7 2 5 6 7 7 7 4 4 5 6 6 7 8 10 10 11 11 10 10 10 9 8 7 6 5 3 4 3 3 3 3 3 4 5 4 4 4 5 5 4 2 2 1 2 2 2 2
10 10 6 7 6 4 5 6 5 4 6 8 9 9 10 11 12 11 11 10 10 10 10 9 8 7 5 3 4 4 4 4 4 4 5 5 5 5 5 5 5 5 4 4 3 2 3 2 1
9 9 5 6 5 1 3 5 5 4 6 7 9 10 11 11 12 11 11 11 11 11 10 9 9 8 7 5 4 4 5 5 5 3 4 5 5 6 6 6 5 5 5 6 5 4 3 2 2
9 6 8 4 1 3 4 5 7 5 6 7 8 9 10 11 12 12 12 11 11 11 11 10 9 9 8 8 5 5 4 4 4 4 4 4 5 5 6 6 6 6 6 6 7 7 6 4 2
7 7 5 5 5 5 6 2 7 4 6 8 8 9 9 9 10 10 10 11 11 11 10 11 10 10 9 8 6 7 5 5 5 4 4 5 4 4 5 5 6 6 5 6 7 7 6 6 4
6 5 6 6 7 7 6 3 6 3 6 8 8 9 8 9 9 9 10 9 9 10 9 8 9 9 9 9 8 6 6 5 5 5 5 4 3 3 3 5 5 5 5 6 7 7 7 6 6
5 7 7 7 7 6 2 2 6 4 7 8 8 8 8 8 8 8 8 8 7 8 7 8 8 8 8 8 8 8 8 8 7 6 5 3 2 2 2 2 3 4 4 6 7 7 9 7 7
5 7 5 5 5 1 4 2 6 6 6 6 7 7 7 7 7 7 7 7 7 7 7 8 8 8 8 8 8 8 8 8 7 6 5 4 3 2 2 1 1 2 3 4 5 6 6 7 8
5 5 6 6 3 4 4 3 6 5 3 4 4 5 6 6 5 6 6 6 5 6 6 6 7 7 7 8 7 7 8 6 5 6 5 4 3 3 3 2 1 0 1 2 3 4 6 6 7
7 5 5 6 9 3 6 7 7 4 3 3 4 5 6 5 5 5 5 5 5 5 5 5 6 6 7 7 7 7 7 7 7 7 6 4 4 4 4 3 3 2 2 1 0 2 3 4 5
2 5 6 5 6 5 3 4 4 4 2 3 4 5 5 5 5 5 4 4 4 4 3 4 5 6 6 6 6 6 6 7 6 6 8 7 6 5 4 4 4 3 3 2 2 1 1 2 3
5 2 4 5 2 4 3 3 5 4 3 2 3 3 4 4 5 4 3 4 4 4 4 4 5 5 6 6 6 6 6 6 6 6 6 6 6 6 6 6 5 5 4 3 3 2 2 2 2
2 5 6 5 5 2 2 4 6 4 2 1 2 3 4 3 3 3 3 3 4 4 4 4 5 5 4 5 5 5 5 6 7 8 8 7 7 7 7 6 7 7 7 6 4 4 3 3 2
Wind_Direction
237 228 224 252 257 80 66 59 53 37 40 47 45 57 68 57 52 84 153 129 118 119 126 132 130 126 122 119 118 121 123 124 127 130 132 135 135 129 125 119 108 95 86 83 76 72 69 69 68
254 217 225 251 314 79 69 60 59 43 37 55 55 54 65 63 79 102 127 112 119 123 136 133 134 131 130 129 128 129 130 128 129 132 134 138 138 137 137 135 127 118 103 97 95 93 89 87 83
259 233 243 234 74 78 78 64 62 57 43 55 73 60 48 51 84 105 115 126 121 126 126 126 139 137 138 140 139 140 141 139 140 143 145 147 149 151 151 148 143 137 125 114 109 105 108 109 104
258 240 252 58 78 70 70 70 60 61 54 55 63 67 59 50 84 110 132 129 120 122 119 133 142 145 148 151 153 156 154 152 155 158 161 163 164 166 166 163 162 156 146 128 125 131 150 151 139
242 269 30 63 76 62 52 59 62 57 52 65 81 84 75 70 88 113 127 122 128 127 127 139 147 153 160 165 169 169 168 168 172 173 175 177 179 182 181 178 174 170 167 153 151 167 174 173 170
270 42 83 95 82 70 53 47 55 55 47 49 79 87 76 73 81 97 108 124 131 131 134 139 154 161 170 179 183 184 185 187 190 191 191 193 195 196 195 194 189 188 189 182 181 190 189 185 184
290 282 169 113 89 73 71 60 58 57 40 30 52 85 75 62 60 72 85 86 103 124 134 150 163 172 181 188 191 193 197 201 204 205 203 202 205 205 205 201 197 196 195 194 194 196 195 192 193
298 312 59 78 93 58 60 66 58 57 49 32 37 59 58 43 51 54 49 49 59 76 115 154 166 175 181 189 198 198 201 206 210 211 209 210 211 213 212 204 201 199 199 201 199 200 200 199 201
262 39 60 60 108 72 55 76 78 67 64 55 53 53 43 39 44 44 38 35 29 27 27 35 78 153 183 188 193 195 203 208 210 212 214 213 216 212 207 217 192 194 200 202 203 203 205 205 209
35 69 66 58 87 93 61 44 43 73 51 40 41 42 38 42 45 44 36 28 24 16 12 19 16 19 6 257 167 183 197 196 205 210 204 211 226 222 209 204 184 190 198 203 208 209 211 217 212
55 77 83 82 96 106 92 60 33 74 51 32 28 30 35 41 43 40 36 28 19 10 8 3 1 6 9 6 33 177 178 183 204 216 209 214 233 236 204 174 180 190 198 205 204 209 219 219 217
76 56 68 67 66 73 76 79 61 55 58 41 42 35 35 36 39 36 32 29 23 12 1 356 353 356 357 354 347 358 118 208 219 224 216 212 231 248 223 193 184 185 194 204 191 207 216 222 215
109 98 87 88 87 87 87 85 80 64 61 56 52 49 42 36 29 32 28 24 24 10 354 352 350 351 351 349 338 334 293 224 224 230 234 211 208 230 239 212 198 196 192 194 198 211 220 215 209
119 126 127 119 108 100 94 84 75 55 47 49 43 48 39 32 21 18 16 5 3 355 346 356 348 347 339 331 324 314 315 300 271 218 232 226 209 219 239 236 216 220 203 181 190 220 241 211 209
138 152 146 142 136 143 120 76 66 50 37 36 24 34 28 23 19 20 10 355 354 344 337 344 320 319 308 309 304 299 294 293 277 255 244 233 208 221 226 239 228 233 233 208 191 216 224 194 197
196 190 157 113 159 184 178 85 71 40 27 28 12 13 12 20 16 19 6 353 349 338 333 334 331 329 307 287 284 282 275 272 265 255 256 252 223 216 225 230 230 228 240 246 195 217 207 186 193
218 238 152 144 44 73 80 95 88 50 17 18 12 3 8 11 15 14 5 353 345 334 334 337 337 323 314 311 286 269 271 265 260 251 240 243 246 227 209 225 225 220 220 243 225 194 197 200 201
332 316 270 136 87 79 91 109 102 54 24 11 9 5 12 10 10 11 1 354 344 340 340 339 328 320 328 326 317 303 288 276 262 255 247 239 237 236 213 214 216 209 203 217 235 221 207 203 200
314 308 314 102 104 84 107 120 103 57 37 16 10 10 14 7 2 9 358 353 347 346 346 337 334 338 335 331 316 312 305 296 279 258 249 237 226 228 226 220 209 200 193 196 203 212 223 218 220
295 297 307 106 94 45 152 143 124 88 54 36 17 11 12 3 356 1 359 358 352 350 345 337 345 338 335 330 316 303 299 292 283 276 271 255 232 217 222 219 212 201 189 191 195 197 202 208 199
316 345 346 350 102 224 212 180 145 123 72 46 30 18 12 3 360 0 359 357 357 356 349 347 347 342 341 335 326 319 309 301 299 296 279 264 251 228 212 217 212 204 194 195 194 194 196 195 209
336 35 341 303 271 229 205 215 132 122 64 37 27 18 11 10 4 1 359 359 1 359 355 353 354 353 348 342 338 330 318 308 300 298 288 283 267 245 215 212 214 203 197 197 196 195 187 179 195
342 338 291 270 259 268 230 240 120 89 30 22 20 16 15 14 6 4 3 360 2 0 357 356 355 356 351 347 342 336 327 311 303 305 299 294 287 268 231 213 209 208 199 198 200 193 187 189 187
290 265 243 239 249 249 230 288 106 56 20 11 14 15 14 12 8 6 3 3 6 4 0 360 359 358 354 353 352 350 344 335 333 330 322 315 311 303 297 248 219 210 207 203 204 199 193 195 191
256 288 266 216 216 139 71 61 79 60 31 18 10 13 14 13 9 4 3 0 358 1 1 358 359 357 356 357 357 354 351 344 341 338 333 339 339 329 322 301 246 223 221 216 211 200 198 200 193
309 298 318 317 331 137 151 91 97 83 61 36 25 22 20 17 9 5 2 355 354 2 1 357 356 358 358 356 357 359 358 353 348 348 350 357 346 337 345 349 338 280 255 241 221 205 202 200 200
319 340 344 300 291 276 123 117 134 144 104 54 32 27 23 8 8 4 0 356 358 3 2 354 357 1 359 357 357 0 359 3 2 3 1 0 358 354 6 15 33 46 40 28 308 201 199 190 195
322 325 305 293 336 325 126 121 121 130 71 40 29 29 21 4 4 1 356 357 357 359 360 0 6 10 5 2 7 10 4 4 6 6 6 2 2 1 8 15 36 46 44 45 48 57 112 166 174
333 300 318 293 284 327 348 75 81 89 68 28 20 24 17 5 353 353 356 358 6 3 11 16 11 18 7 4 4 11 7 5 9 11 5 4 6 10 19 22 28 32 33 35 46 45 61 77 128
335 351 333 327 350 323 281 106 104 112 106 45 16 15 13 354 342 357 6 6 17 9 12 28 17 18 14 4 2 10 16 16 18 13 9 12 15 18 24 25 30 31 27 23 26 34 48 58 72